[[{"header":{"parameterUnit":"m.s-1","parameterCategory":1,"la1":30.2991,"la2":30.254,"lo1":-89.0895,"lo2":-89.0444,"dy":0.0017,"dx":0.0017,"nx":28,"ny":28,"refTime":"2023-10-09T21:00:00:Z","depth":0,"parameterNumber":2,"parameterNumberName":"U-component_of_WINDS"},"data":[0,0,0,0,0,0,0,0,0,0,0,0,0,0,0,0,0,0,0,0,0,0,0,0,0,0,0,0,0,0,0,0,0,0,0,0,0,0,0,0,0,0,0,0,0,0,0,0,0,0,0,0,0,0,0,0,0,0,-0.1966,-0.1966,0,-0.1909,-0.1908,-0.1908,-0.1875,-0.1875,-0.1875,-0.1875,-0.1814,-0.1812,-0.1811,0,0,0,0,0,0,0,0,0,0,0,0,0,-0.2046,-0.2045,-0.1966,-0.1966,-0.1965,-0.1909,-0.1908,-0.1907,-0.1875,-0.1875,-0.1875,-0.1875,-0.1814,-0.1812,-0.1811,0,0,0,0,0,0,0,0,0,0,0,0,0,-0.2002,-0.2044,-0.1967,-0.1942,-0.1939,-0.1909,-0.1908,-0.1907,-0.1875,-0.1875,-0.1875,-0.1875,-0.1815,-0.1813,-0.181,-0.1799,0,0,-0.1803,-0.1802,0,0,0,0,0,0,0,0,-0.2005,-0.1999,-0.1947,-0.1944,-0.1941,-0.1899,-0.1914,-0.1871,-0.1875,-0.19,-0.1875,-0.1875,-0.1842,-0.1837,-0.1827,-0.1796,-0.1794,-0.1803,-0.1802,-0.1801,-0.18,0,0,0,0,0,0,0,-0.2008,-0.2002,-0.1944,-0.1946,-0.1942,-0.1933,-0.1927,-0.1906,-0.1872,-0.1897,-0.1895,-0.1889,-0.184,-0.1829,-0.1825,-0.1793,-0.1803,-0.1801,-0.18,-0.1799,-0.175,-0.175,0,0,0,0,0,0,-0.2015,-0.2004,-0.1945,-0.1942,-0.1973,-0.1932,-0.1925,-0.1913,-0.1872,-0.1866,-0.1889,-0.1887,-0.1833,-0.1828,-0.1823,-0.1808,-0.1801,-0.1798,-0.1797,-0.175,-0.175,-0.175,0,0,0,0,0,0,-0.2017,-0.201,-0.1948,-0.1972,-0.1964,-0.1931,-0.1917,-0.1912,-0.19,-0.1866,-0.186,-0.1884,-0.1833,-0.1826,-0.1805,-0.1805,-0.1797,-0.1795,-0.175,-0.175,-0.175,-0.1777,0,0,0,0,0,0,-0.2019,-0.2011,-0.2007,-0.1973,-0.1963,-0.1932,-0.1917,-0.191,-0.1897,-0.1894,-0.186,-0.1854,-0.1832,-0.1809,-0.1803,-0.1802,-0.1794,-0.175,-0.175,-0.175,-0.1776,-0.1778,-0.1779,0,0,0,0,0,-0.2022,-0.2016,-0.2007,-0.2,-0.1957,-0.1932,-0.1926,-0.1903,-0.1897,-0.1892,-0.187,-0.1855,-0.1806,-0.1807,-0.18,-0.1798,-0.175,-0.175,-0.175,-0.1775,-0.1777,-0.1779,0,0,0,0,0,0,-0.2051,-0.2011,-0.2001,-0.1983,-0.1961,-0.1927,-0.192,-0.1906,-0.1884,-0.1883,-0.1854,-0.1846,-0.1828,-0.1811,-0.1813,-0.1785,-0.1776,-0.1775,-0.1797,-0.1799,-0.1801,-0.1806,-0.1792,0,0,0,0,0,-0.2055,-0.2039,-0.2005,-0.1993,-0.1982,-0.1953,-0.1941,-0.1925,-0.1901,-0.1891,-0.1867,-0.1844,-0.1823,-0.181,-0.1789,-0.1773,-0.1765,-0.1768,-0.177,-0.1771,-0.1771,-0.1761,-0.1762,-0.1751,-0.1751,-0.1751,0,0,-0.2064,-0.204,-0.2031,-0.1998,-0.1979,-0.1962,-0.1946,-0.1928,-0.1915,-0.1888,-0.1868,-0.1849,-0.1821,-0.1803,-0.1793,-0.1788,-0.1772,-0.1772,-0.1773,-0.1772,-0.1761,-0.1763,-0.1764,-0.1751,-0.1751,-0.1751,0,0,-0.2071,-0.2051,-0.2039,-0.2021,-0.1993,-0.1973,-0.1971,-0.1938,-0.1925,-0.1904,-0.1883,-0.1867,-0.1832,-0.1813,-0.1799,-0.1799,-0.1784,-0.1793,-0.1802,-0.1793,-0.1794,-0.1795,-0.1795,-0.1796,-0.1792,-0.1792,-0.1792,0,-0.2085,-0.2059,-0.2035,-0.2019,-0.2005,-0.198,-0.1968,-0.1951,-0.1917,-0.1907,-0.1902,-0.1858,-0.1837,-0.1814,-0.1814,-0.1803,-0.1798,-0.1797,-0.1796,-0.1797,-0.1797,-0.1797,-0.1797,-0.1793,-0.1793,-0.1793,-0.1793,0,-0.2078,-0.2061,-0.2054,-0.2023,-0.2008,-0.1994,-0.1967,-0.1955,-0.194,-0.1921,-0.1899,-0.1874,-0.1847,-0.184,-0.1825,-0.1815,-0.1812,-0.1802,-0.1792,-0.18,-0.1799,-0.1799,-0.1795,-0.1795,-0.1794,-0.1794,0,0,-0.2102,-0.2058,-0.2056,-0.2041,-0.2009,-0.1994,-0.1979,-0.1954,-0.1944,-0.1921,-0.1907,-0.1878,-0.1869,-0.1852,-0.1835,-0.1827,-0.1829,-0.1817,-0.1816,-0.182,-0.1816,-0.1825,-0.1825,-0.1818,-0.1818,-0.1818,-0.1819,0,-0.2105,-0.2077,-0.2054,-0.2034,-0.2018,-0.1994,-0.1981,-0.1959,-0.1941,-0.1923,-0.1903,-0.1883,-0.1872,-0.1862,-0.1853,-0.183,-0.1828,-0.183,-0.1805,-0.1805,-0.1814,-0.1825,-0.1834,-0.1836,-0.1818,-0.1818,-0.1818,0,-0.2104,-0.2084,-0.2063,-0.2032,-0.2024,-0.2012,-0.1988,-0.1972,-0.1946,-0.1933,-0.1915,-0.1897,-0.1879,-0.1871,-0.1846,-0.1848,-0.1836,-0.1824,-0.1823,-0.1821,-0.1812,-0.1823,-0.1836,-0.1836,-0.1818,-0.1818,-0.1818,0,-0.2124,-0.2091,-0.2074,-0.2062,-0.2026,-0.2018,-0.2002,-0.1977,-0.1963,-0.1941,-0.1932,-0.1908,-0.1895,-0.1877,-0.1852,-0.1848,-0.183,-0.1819,-0.1818,-0.1819,-0.1816,-0.1817,-0.1828,-0.1808,-0.1808,-0.1808,-0.1808,0,-0.213,-0.2118,-0.2083,-0.2072,-0.2058,-0.2032,-0.2018,-0.2,-0.1978,-0.1963,-0.1941,-0.1927,-0.1896,-0.1878,-0.1859,-0.1841,-0.1835,-0.1824,-0.1819,-0.1827,-0.1828,-0.1819,-0.1818,-0.1808,-0.1808,-0.1808,-0.1808,0,-0.215,-0.2126,-0.2106,-0.2073,-0.2065,-0.2056,-0.2027,-0.2016,-0.1997,-0.1978,-0.1972,-0.1942,-0.192,-0.1894,-0.1864,-0.1851,-0.1835,-0.1827,-0.1844,-0.1841,-0.1842,-0.1843,-0.1848,-0.1848,-0.1828,-0.1828,-0.1828,0,-0.2156,-0.2146,-0.2112,-0.2102,-0.2087,-0.2069,-0.2055,-0.2029,-0.2015,-0.1986,-0.1978,-0.1955,-0.1935,-0.1902,-0.1876,-0.1853,-0.1845,-0.1848,-0.1841,-0.1849,-0.1845,-0.1847,-0.1846,-0.185,-0.1851,-0.1851,-0.1851,0,-0.2168,-0.2157,-0.2138,-0.2116,-0.21,-0.2081,-0.206,-0.2053,-0.2022,-0.2008,-0.1986,-0.1971,-0.194,-0.1917,-0.1891,-0.1874,-0.1858,-0.1854,-0.1852,-0.186,-0.187,-0.1865,-0.185,-0.1854,-0.1854,-0.1853,-0.1853,-0.1853,-0.2182,-0.2172,-0.2147,-0.2127,-0.2109,-0.2091,-0.2079,-0.2058,-0.204,-0.2014,-0.1999,-0.1977,-0.1952,-0.1915,-0.1898,-0.1881,-0.1875,-0.1873,-0.1872,-0.1873,-0.1875,-0.1873,-0.1876,-0.1876,-0.1876,-0.1876,-0.1875,0,-0.2194,-0.2176,-0.2158,-0.2131,-0.2115,-0.2102,-0.2078,-0.2066,-0.2048,-0.2026,-0.2007,-0.1982,-0.196,-0.1933,-0.1909,-0.19,-0.1892,-0.1895,-0.1895,-0.1892,-0.1881,-0.1885,-0.1902,-0.1902,-0.1902,-0.1902,-0.1902,-0.1902,-0.2198,-0.2181,-0.2167,-0.2141,-0.2124,-0.2103,-0.2091,-0.2074,-0.2056,-0.203,-0.2011,-0.1994,-0.197,-0.1944,-0.1923,-0.1916,-0.1908,-0.1913,-0.1904,-0.1895,-0.1892,-0.189,-0.1894,-0.1912,-0.1912,-0.1916,-0.1916,-0.1916]},{"header":{"parameterUnit":"m.s-1","parameterCategory":1,"la1":30.2991,"la2":30.254,"lo1":-89.0895,"lo2":-89.0444,"dy":0.0017,"dx":0.0017,"nx":28,"ny":28,"refTime":"2023-10-09T21:00:00:Z","depth":0,"parameterNumber":3,"parameterNumberName":"V-component_of_WINDS"},"data":[0,0,0,0,0,0,0,0,0,0,0,0,0,0,0,0,0,0,0,0,0,0,0,0,0,0,0,0,0,0,0,0,0,0,0,0,0,0,0,0,0,0,0,0,0,0,0,0,0,0,0,0,0,0,0,0,0,0,1.6111,1.6111,0,1.6058,1.6057,1.6056,1.6073,1.6074,1.6075,1.6077,1.6017,1.6014,1.6011,0,0,0,0,0,0,0,0,0,0,0,0,0,1.6224,1.6222,1.6111,1.6111,1.611,1.6058,1.6057,1.6056,1.6073,1.6074,1.6076,1.6077,1.6017,1.6014,1.6011,0,0,0,0,0,0,0,0,0,0,0,0,0,1.6173,1.6221,1.6112,1.6112,1.6112,1.6058,1.6057,1.6056,1.6073,1.6074,1.6076,1.6078,1.6019,1.6015,1.6011,1.5951,0,0,1.5998,1.5997,0,0,0,0,0,0,0,0,1.6176,1.6169,1.6113,1.6112,1.6111,1.6074,1.6075,1.6021,1.6072,1.6087,1.6077,1.6079,1.6034,1.6029,1.6015,1.5949,1.5946,1.5998,1.5996,1.5994,1.5993,0,0,0,0,0,0,0,1.6179,1.6171,1.609,1.6112,1.6111,1.6114,1.6108,1.6064,1.6051,1.6086,1.6087,1.6081,1.6034,1.6019,1.6013,1.5945,1.5998,1.5995,1.5992,1.5991,1.5826,1.5824,0,0,0,0,0,0,1.6184,1.6174,1.6092,1.6088,1.6149,1.611,1.6104,1.6084,1.6052,1.6049,1.608,1.6082,1.6025,1.6018,1.6011,1.5938,1.5994,1.599,1.5988,1.5828,1.5825,1.5823,0,0,0,0,0,0,1.6186,1.6176,1.6094,1.6131,1.6121,1.6107,1.6084,1.6082,1.6067,1.6047,1.6044,1.6067,1.6026,1.6017,1.5966,1.5937,1.5988,1.5985,1.583,1.5827,1.5824,1.5793,0,0,0,0,0,0,1.6189,1.6177,1.6155,1.6131,1.6119,1.6051,1.6082,1.608,1.6061,1.6063,1.6034,1.6031,1.6026,1.5972,1.5962,1.5932,1.5982,1.5833,1.5829,1.5825,1.5796,1.5789,1.5783,0,0,0,0,0,1.6193,1.6148,1.6154,1.6144,1.6092,1.6049,1.6042,1.6039,1.6058,1.6035,1.6023,1.6032,1.5942,1.5967,1.5956,1.5924,1.5834,1.583,1.5825,1.5799,1.579,1.5783,0,0,0,0,0,0,1.6168,1.6145,1.6151,1.6097,1.6075,1.6052,1.6023,1.603,1.6001,1.6004,1.6001,1.5994,1.5941,1.5928,1.5956,1.5864,1.5891,1.5884,1.5874,1.5866,1.5859,1.5862,1.5978,0,0,0,0,0,1.6156,1.6125,1.6106,1.606,1.6048,1.6038,1.6019,1.6019,1.5995,1.5985,1.5969,1.5944,1.591,1.5888,1.5855,1.5795,1.5788,1.5768,1.5761,1.5756,1.5749,1.5714,1.5704,1.5809,1.5809,1.5809,0,0,1.6131,1.6115,1.6095,1.6054,1.6037,1.6003,1.603,1.5992,1.5966,1.5979,1.593,1.5917,1.5889,1.5833,1.5807,1.582,1.5719,1.575,1.5746,1.5742,1.5709,1.5699,1.569,1.5806,1.5806,1.5807,0,0,1.6067,1.6053,1.6012,1.5995,1.5969,1.5962,1.5953,1.5928,1.5921,1.5872,1.588,1.5849,1.5791,1.577,1.5752,1.5681,1.5688,1.5671,1.5634,1.5601,1.5592,1.5585,1.5558,1.5548,1.5665,1.5665,1.5664,0,1.6039,1.5989,1.599,1.5952,1.5933,1.5945,1.5902,1.5885,1.5849,1.5835,1.5851,1.5778,1.576,1.5698,1.5681,1.5667,1.5653,1.5673,1.5594,1.5587,1.558,1.5553,1.5543,1.5662,1.5663,1.5663,1.5663,0,1.5954,1.5919,1.5889,1.5856,1.5834,1.5794,1.5787,1.5764,1.5766,1.5757,1.5707,1.5686,1.5649,1.5635,1.5636,1.5573,1.5581,1.5596,1.5622,1.5568,1.5543,1.5533,1.5659,1.566,1.5661,1.5661,0,0,1.5871,1.584,1.5828,1.5813,1.5786,1.5758,1.5718,1.5684,1.5663,1.5639,1.5603,1.5554,1.5567,1.5547,1.5546,1.5516,1.5459,1.5534,1.5533,1.5519,1.5386,1.5373,1.5362,1.5464,1.5463,1.5461,1.5387,0,1.5803,1.5735,1.5734,1.567,1.5637,1.5648,1.5613,1.5591,1.5582,1.5551,1.5541,1.5505,1.5526,1.5514,1.5485,1.5472,1.5432,1.5478,1.5429,1.5427,1.5433,1.5349,1.5336,1.5268,1.5378,1.5376,1.5375,0,1.5715,1.5689,1.5621,1.5599,1.5585,1.5553,1.5521,1.5493,1.5468,1.5463,1.5441,1.5444,1.5401,1.5431,1.5371,1.5402,1.5382,1.5373,1.537,1.5363,1.5396,1.5338,1.5246,1.5235,1.536,1.5361,1.5362,0,1.5658,1.5606,1.5559,1.5546,1.5518,1.5496,1.5483,1.546,1.5439,1.5411,1.5397,1.5364,1.5345,1.5318,1.5312,1.5334,1.5251,1.528,1.5244,1.5244,1.5223,1.5224,1.5125,1.5215,1.5215,1.5215,1.5215,0,1.5581,1.5539,1.5533,1.5504,1.5456,1.5456,1.5408,1.5397,1.5377,1.5344,1.5352,1.5321,1.5316,1.5283,1.5278,1.5227,1.5219,1.5213,1.5211,1.5211,1.5211,1.5196,1.5199,1.5212,1.5213,1.5214,1.5214,0,1.5509,1.5504,1.5453,1.5431,1.5425,1.5391,1.5372,1.5343,1.5335,1.5293,1.5284,1.5271,1.5232,1.5224,1.5178,1.5175,1.5115,1.5119,1.5123,1.5123,1.5085,1.5088,1.497,1.4954,1.5057,1.5056,1.5055,0,1.5459,1.5427,1.5403,1.5383,1.5369,1.5336,1.5315,1.5313,1.5291,1.526,1.5234,1.5197,1.5167,1.5105,1.5091,1.5055,1.5057,1.5019,1.5052,1.5052,1.5054,1.5055,1.5051,1.5011,1.501,1.5009,1.5009,0,1.5371,1.537,1.534,1.5309,1.5284,1.526,1.5236,1.5218,1.5213,1.5187,1.5149,1.5126,1.508,1.5042,1.5007,1.4992,1.4998,1.4999,1.4988,1.4986,1.4988,1.4984,1.5103,1.5001,1.5002,1.5002,1.5003,1.5003,1.5306,1.5278,1.5257,1.5223,1.5205,1.5183,1.5155,1.5144,1.5113,1.5076,1.5077,1.5034,1.5009,1.4963,1.4946,1.4911,1.4923,1.4908,1.4904,1.4899,1.4895,1.4996,1.4905,1.4905,1.4906,1.4906,1.4906,0,1.5216,1.5203,1.5173,1.514,1.5113,1.5125,1.5099,1.5075,1.5038,1.5015,1.4986,1.4941,1.4905,1.4888,1.4851,1.4827,1.4829,1.4817,1.4818,1.4814,1.4888,1.49,1.4816,1.4816,1.4816,1.4816,1.4816,1.4816,1.5166,1.5118,1.5115,1.5057,1.5044,1.5004,1.4988,1.4967,1.4949,1.4899,1.4869,1.4859,1.4838,1.48,1.4767,1.4763,1.4748,1.4734,1.4731,1.48,1.4809,1.4817,1.4828,1.4731,1.4731,1.4659,1.4659,1.4658]}]]